Tracking 18840 objects as of 18-November-2017
HD Live streaming from Space Station
objects crossing your sky now

SCOUT A DEB

Track SCOUT A DEB now!
10-day predictions


NORAD ID: 31407
Int'l Code: 1966-041H
Perigee: 788.7 km
Apogee: 885.7 km
Inclination: 90.1 °
Period: 101.5 minutes
Semi major axis: 7208 km
RCS: 0.0062 m2 (small)
Launch date: May 19, 1966
Source: United States (US)
Launch site: AIR FORCE WESTERN TEST RANGE (AFWTR)

Note: This is SATELLITE DEBRIS
aabbcc
Your satellite tracking list
Your tracking list is empty




NASA's NSSDC Master Catalog

Two Line Element Set (TLE):
1 31407U 66041H   17320.91762014 +.00000618 +00000-0 +28678-3 0  9994
2 31407 090.1367 015.7610 0067285 044.7178 315.9409 14.18621832054569
Source of the keplerian elements: AFSPC